Regional Weather Roundup
Issued by NWS

Home | Current Version | Previous Version | Text Only | Print | Product List | Glossary On
Versions: 1 2 3 4 5 6 7 8 9 10 11 12 13 14 15 16 17 18 19 20 21 22 23 24 25 26 27 28
000
ASUS44 KLIX 271711
RWRLA
LOUISIANA WEATHER ROUNDUP
NATIONAL WEATHER SERVICE NEW ORLEANS LA
1200 PM CDT TUE SEP 27 2016

NOTE: "FAIR" INDICATES FEW OR NO CLOUDS BELOW 12,000 FEET WITH NO
      SIGNIFICANT WEATHER AND/OR OBSTRUCTIONS TO VISIBILITY.
      SKY/WX - SKY CONDITION AND SIGNIFICANT WEATHER.
      TMP - AIR TEMPERATURE.    DP   - DEWPOINT TEMPERATURE.
      RH  - RELATIVE HUMIDITY.  PRES - PRESSURE.
      HX  - HEAT INDEX.         WCI  - WIND CHILL INDEX.

*  THESE STATIONS ARE NOT NWS OR FAA STATIONS AND ARE NOT UNDER
   NWS QUALITY CONTROL.

LAZ040-048-061>063-065-066-069-271800-
SOUTHEAST LOUISIANA

CITY           SKY/WX    TMP DP  RH WIND       PRES   REMARKS
N.O. AUDUBON   NOT AVBL
N.O. INTL ARPT PTSUNNY   85  73  67 N9        29.97F
N.O. LAKEFRONT FAIR      83  72  69 NW6       29.97F
N.O. DOWNTOWN*   N/A     84  72  67 VRB3      29.97F
RESERVE*       FAIR      85  72  65 CALM      29.97F
SLIDELL        FAIR      84  73  69 VRB3      29.96F
BATON ROUGE    FAIR      83  69  62 NW5       29.99F
BOOTHVILLE     CLOUDY    84  74  71 CALM      29.97S
BELLE CHASSE   PTSUNNY   87  74  64 VRB5      29.96F HX  95
BOGALUSA*      FAIR      84  69  60 CALM      29.99F
GALLIANO*      NOT AVBL
NEW ROADS*     FAIR      79  68  69 MISG      30.00F
GONZALES*      FAIR      81  70  68 CALM      29.98S
HAMMOND*       FAIR      86  68  54 NE6       29.98F
HOUMA*         SUNNY     84  73  70 NW6       29.98F
PORT FOURCHON* SUNNY     84  73  70 W8        29.97S

$$

LAZ041-044-053-054-271800-
SOUTHWEST LOUISIANA

CITY           SKY/WX    TMP DP  RH WIND       PRES   REMARKS
LAKE CHARLES   FAIR      81  66  60 N7        30.01F
LAFAYETTE      FAIR      80  66  62 CALM      30.01F
PATTERSON      FAIR      83  73  72 VRB3      29.99F
SALT POINT     NOT AVBL
NEW IBERIA     FAIR      81  67  62 NW6       30.01S
CHENAULT AIRPK MOSUNNY   82  68  61 NE8       30.02F

$$

LAZ027-028-271800-
CENTRAL LOUISIANA

CITY           SKY/WX    TMP DP  RH WIND       PRES   REMARKS
FORT POLK      FAIR      79  64  59 NE5       30.02F
ALEXANDRIA INT FAIR      80  62  54 NE7       30.01F
ALEXANDRIA     FAIR      79  64  60 VRB5      30.03F

$$

LAZ001-002-271800-
NORTHWEST LOUISIANA

CITY           SKY/WX    TMP DP  RH WIND       PRES   REMARKS
SHREVEPORT     PTSUNNY   78  58  49 NE9       30.07F
BARKSDALE AFB  FAIR      75  56  52 NE6       30.07F
DTN SHREVEPORT PTSUNNY   75  57  53 E10       30.07F

$$

LAZ014-016-271800-
NORTHEAST LOUISIANA

CITY           SKY/WX    TMP DP  RH WIND       PRES   REMARKS
MONROE         FAIR      79  57  46 NE8       30.05F
TALLULAH       FAIR      77  58  51 NE8       30.03F

$$





USA.gov is the U.S. government's official web portal to all federal, state and local government web resources and services.